Location: Laterina
(43.5167°N, 11.7167°E)
Time: 08:18:19
(UTC+00:00)

Cosmos 2026 Rocket - Pass Details

Date: 26 January 2021
Orbit: 940 x 1000 km, 82.9° (Epoch: 08 March)

Event Time Altitude Azimuth Distance (km) Brightness Sun altitude
Rises 18:23:12 0° 204° (SSW) 3,609 7.4 -22.9°
Reaches altitude 10° 18:25:46 10° 210° (SSW) 2,675 6.7 -23.4°
Maximum altitude 18:31:38 47° 284° (WNW) 1,260 4.9 -24.4°
Drops below altitude 10° 18:37:38 10° 357° (N) 2,732 6.3 -25.5°
Sets 18:40:18 0° 3° (N) 3,693 7.0 -26.0°
